RH
37 41 35 24 19 17 17 17 18 20 24 29 26 24 30 35 37 38 41 43 44 47 52 59 64 64 58 51 50 53 56 59 65 70 75 80 84 88 94 97 99 102 103 102 100 95 93 94 93 91 89 87 84 80 74 68 66 66 65 61 57 56 59 64 69 68 59 45 32 25 22 23 23 24 28 31 33 34 38 34 23 20 26 46 66 74 75 76
48 46 36 23 16 19 19 18 21 25 29 33 33 30 35 38 37 40 45 50 58 66 69 68 64 61 60 62 67 74 80 85 88 89 93 97 99 101 103 103 103 105 103 98 95 95 95 93 90 87 86 82 77 72 69 66 64 63 60 57 56 61 67 68 68 61 46 33 26 25 26 27 26 26 28 31 32 37 41 30 16 18 32 45 50 58 71 81
57 47 35 23 19 24 25 26 31 32 33 40 41 35 38 43 48 56 68 85 90 82 72 67 67 70 78 85 93 100 100 98 97 96 99 103 104 103 104 103 103 103 100 97 96 95 93 90 85 81 76 73 70 68 67 64 61 58 57 59 63 69 72 65 54 40 29 26 27 28 29 30 29 28 30 32 34 38 31 18 17 25 34 38 45 60 71 77
60 49 35 28 30 34 35 38 43 42 41 45 43 39 46 55 63 72 87 99 92 80 77 80 86 93 99 102 103 105 99 96 97 96 100 104 104 103 102 101 101 102 99 95 92 91 87 81 76 71 68 68 67 65 64 62 63 63 64 69 74 72 62 46 32 24 22 25 27 27 28 29 27 27 30 32 38 38 22 14 21 27 31 34 43 59 73 80
62 52 42 42 47 47 48 53 54 52 50 49 47 48 57 65 69 74 82 87 85 93 100 98 100 102 104 104 103 100 97 98 100 100 102 103 103 103 102 101 100 98 95 93 90 85 78 72 70 68 66 64 62 61 64 66 70 75 75 75 72 57 39 26 21 22 23 25 25 26 27 27 26 26 28 30 33 31 21 21 27 29 32 34 36 42 54 67
60 55 50 55 61 61 63 66 61 58 59 57 58 65 76 85 89 88 90 93 96 105 107 102 103 102 100 101 100 97 97 100 100 101 103 102 103 102 99 96 94 93 93 92 85 75 70 68 66 63 59 59 61 65 71 75 79 82 76 65 48 32 25 23 23 24 23 25 25 26 28 27 27 28 29 28 25 24 26 28 31 33 34 35 36 38 40 46
58 60 57 61 71 71 71 75 74 74 76 73 74 83 92 98 102 101 103 106 108 107 107 107 107 107 104 102 102 100 101 101 97 99 100 100 99 98 96 95 94 92 89 81 72 66 63 61 58 58 60 65 70 75 80 83 82 74 58 40 29 25 27 28 27 26 26 27 26 27 28 27 26 27 29 26 22 25 31 32 32 32 32 33 36 37 38 40
58 64 64 67 73 68 74 89 94 95 96 91 90 96 98 99 101 102 104 108 110 108 110 110 109 113 112 106 104 102 102 101 99 101 103 103 102 100 99 95 90 82 73 66 61 59 58 59 62 68 73 76 80 83 84 81 68 50 37 30 29 30 30 29 29 29 29 28 27 27 28 27 24 25 27 26 24 28 30 29 29 29 31 32 32 33 34 36
58 65 72 73 66 66 87 103 101 100 101 101 100 101 100 100 99 98 97 98 100 103 107 108 109 111 108 101 98 98 100 99 99 101 103 104 102 98 91 81 73 65 61 60 59 62 66 73 78 81 84 86 86 85 76 60 44 34 34 35 34 33 31 30 31 31 30 29 28 29 29 27 23 24 28 28 28 29 27 26 27 27 28 27 27 27 27 28
61 70 78 71 63 78 104 108 102 100 99 100 100 99 100 98 94 90 91 95 98 100 102 103 101 98 95 92 93 95 96 95 95 95 93 91 87 79 71 65 63 63 66 69 72 77 82 85 87 87 89 89 82 70 54 39 35 36 39 38 35 35 33 32 33 32 32 32 31 32 32 28 24 25 29 29 29 28 27 27 27 27 26 24 24 24 24 26
62 74 81 75 74 92 108 105 103 104 100 101 101 99 101 100 94 86 86 94 96 94 96 97 94 92 92 91 94 96 96 96 97 92 84 76 69 64 63 66 71 74 78 82 85 87 89 90 89 89 87 79 63 48 39 37 40 42 41 39 37 37 36 35 36 35 34 34 33 34 34 29 25 26 28 29 28 27 27 27 26 27 28 28 30 31 30 30
62 72 89 96 94 94 99 98 96 97 95 96 98 97 98 98 91 85 88 94 93 89 90 90 89 92 93 95 98 100 101 102 98 87 76 67 65 68 73 78 81 83 86 89 91 91 91 89 88 85 75 59 46 41 41 42 43 42 41 41 39 38 37 37 38 36 35 35 34 35 36 31 27 27 28 30 30 28 28 26 25 26 27 29 31 34 35 35
63 71 98 112 102 87 84 89 90 91 92 93 96 96 95 93 89 92 99 100 96 91 91 92 92 94 97 102 106 107 107 100 90 78 69 68 73 79 82 85 87 89 91 92 92 90 89 88 82 70 55 45 43 45 46 44 43 43 42 42 42 41 38 39 39 38 36 36 35 36 38 34 31 30 30 31 32 32 30 28 27 27 28 28 28 30 32 32
66 75 97 101 99 94 86 90 97 98 98 100 103 101 99 99 101 105 105 102 99 95 95 98 99 101 104 107 109 107 97 84 75 69 66 71 81 86 87 89 92 93 92 91 89 90 88 80 65 50 43 45 47 47 45 44 43 44 45 45 46 45 43 42 42 40 38 38 37 38 41 38 34 34 35 36 37 37 34 30 30 30 29 29 28 28 28 28
68 77 85 79 90 101 97 102 108 103 98 99 100 98 95 96 103 105 101 97 96 96 102 107 107 104 102 100 99 93 82 74 72 69 71 80 86 90 91 91 93 93 91 90 91 89 78 61 47 44 46 49 50 48 46 45 46 48 51 48 47 48 46 46 47 45 43 43 41 42 46 44 38 37 38 39 41 43 40 35 33 32 31 30 29 28 27 27
73 77 72 68 82 91 96 104 107 101 96 94 93 91 89 88 93 95 94 93 94 102 110 111 106 99 93 89 85 80 76 75 76 77 82 88 91 92 92 92 91 91 91 92 89 76 59 47 46 50 53 53 52 51 49 50 52 54 55 53 50 50 49 49 50 49 48 49 47 48 52 51 45 43 42 42 44 47 45 40 36 34 32 30 29 29 30 31
97 94 69 64 78 83 90 95 97 99 96 94 91 86 84 83 86 88 90 94 97 104 104 99 94 88 83 80 78 78 78 79 82 87 91 91 92 93 93 92 90 91 93 88 75 58 49 50 55 57 58 58 55 54 55 56 58 58 58 56 53 51 51 51 53 53 52 54 53 53 56 57 53 49 48 46 47 50 49 45 40 37 35 34 34 35 36 39
109 102 73 74 89 89 93 96 98 101 99 99 97 93 89 86 86 88 94 97 98 99 95 91 88 83 81 80 80 81 83 88 92 93 92 91 93 94 93 92 93 94 87 72 58 53 56 61 62 62 61 60 58 59 61 63 64 63 61 60 57 54 52 51 54 55 56 59 59 57 59 61 59 55 51 46 45 45 46 46 43 41 42 44 44 45 46 47
95 89 82 97 105 99 98 100 100 100 99 100 100 99 95 90 89 92 98 99 98 98 94 92 89 86 87 87 85 88 92 96 95 92 92 93 95 94 93 95 95 86 70 57 55 60 65 67 65 63 62 63 65 66 68 69 69 68 67 65 62 59 56 54 55 56 58 62 63 62 64 67 67 65 59 49 42 39 39 40 40 41 47 53 55 54 52 49
85 90 98 106 105 102 101 99 100 100 100 100 99 97 93 92 94 98 101 100 99 97 91 89 89 89 90 89 91 95 97 95 93 92 94 95 94 94 96 96 86 69 59 59 64 67 70 70 68 68 69 70 72 74 75 74 73 74 73 69 64 62 62 61 60 61 61 63 68 68 69 74 74 76 73 59 46 42 39 36 36 40 48 59 66 62 54 47
95 100 102 102 101 102 101 99 101 100 100 99 97 95 94 97 100 103 105 101 97 92 89 89 90 92 92 93 96 96 95 94 94 95 95 95 95 98 98 86 70 60 62 70 72 71 71 73 76 78 78 79 79 80 80 78 77 79 79 74 69 65 65 68 68 68 66 67 73 72 74 83 83 85 87 72 54 50 46 38 37 43 51 60 67 68 65 56
107 106 104 107 107 102 101 102 102 101 100 97 94 93 95 98 101 104 103 101 99 94 93 94 94 97 97 96 97 94 95 96 97 97 96 97 99 98 88 69 60 63 71 76 77 77 77 79 85 84 82 84 85 86 85 80 77 80 82 80 76 70 69 77 80 77 72 70 75 73 76 91 95 95 98 85 70 67 61 49 44 48 53 55 59 66 71 69
105 109 110 114 112 105 105 105 104 102 99 95 92 94 98 100 102 102 100 101 101 95 95 97 98 100 99 97 95 95 97 98 100 100 99 101 98 86 70 60 63 71 77 81 83 85 84 84 87 85 85 89 91 91 86 78 77 81 83 81 80 77 75 82 87 83 79 75 75 73 77 96 105 102 100 94 88 86 79 72 67 64 62 57 54 58 64 71
98 106 109 111 108 105 106 107 105 101 97 95 96 97 97 95 93 93 94 98 99 96 97 98 100 101 99 97 96 97 99 100 103 103 101 98 86 68 59 63 72 77 81 85 88 92 90 86 89 91 93 95 95 92 82 75 80 85 85 82 80 81 81 82 83 81 81 80 78 74 74 95 111 105 96 92 94 98 99 99 96 92 90 83 74 69 69 75
89 97 102 103 102 103 104 102 98 93 91 93 95 92 88 85 86 90 94 98 100 100 100 99 101 100 99 99 98 100 103 105 105 103 95 82 67 59 63 71 79 84 85 88 94 97 93 89 92 97 98 97 94 89 81 77 83 87 87 85 80 81 82 81 80 78 78 80 80 76 73 89 110 112 98 83 83 93 101 107 107 106 106 104 98 92 88 87
86 96 102 102 102 104 100 93 93 92 92 96 95 89 87 90 94 97 98 100 101 100 99 100 102 101 100 100 101 104 108 108 101 90 77 65 59 64 73 79 84 88 91 96 101 100 97 96 97 98 97 95 91 90 87 84 84 86 89 88 85 84 81 80 80 76 77 79 77 77 77 79 93 111 110 95 90 91 91 91 90 92 100 107 109 107 105 103
97 106 107 104 103 102 96 94 96 94 96 100 97 92 94 98 100 100 100 101 101 100 102 104 103 102 102 102 105 107 105 96 83 70 62 61 65 71 79 84 89 96 101 104 105 102 100 100 98 95 94 94 92 93 93 89 86 86 88 89 87 85 81 81 79 75 77 78 77 83 84 72 72 94 109 106 108 106 98 92 80 69 70 82 97 107 111 111
107 108 105 102 101 100 99 99 97 96 99 101 95 93 96 98 100 100 100 102 101 103 106 106 104 103 103 105 107 103 92 79 68 61 60 65 71 78 86 92 98 106 107 104 104 102 100 100 98 95 95 96 98 99 97 93 89 86 85 85 84 83 82 83 81 81 81 76 78 89 88 71 63 79 96 101 107 109 107 109 101 85 71 68 79 94 104 107
105 104 102 101 101 100 101 100 99 100 100 95 93 96 100 101 101 100 101 103 104 105 105 104 102 103 104 104 98 88 75 65 62 63 68 74 79 86 95 102 107 110 107 103 101 99 98 99 100 98 97 100 102 102 98 92 89 87 87 88 87 84 84 86 85 84 81 76 82 89 85 72 61 68 88 100 104 107 107 109 111 110 103 93 90 91 96 103
102 102 101 101 100 100 102 102 102 102 97 93 96 100 103 103 101 102 106 106 105 105 104 102 101 102 102 95 84 75 67 64 68 75 82 86 88 95 102 106 108 108 105 102 100 98 98 99 101 100 99 100 100 98 96 94 94 94 93 90 86 84 85 87 86 85 83 81 87 90 84 76 62 60 77 91 95 98 102 106 108 110 110 108 107 103 99 102
102 101 100 101 100 100 101 100 101 100 97 98 100 101 103 104 106 109 109 107 107 107 104 102 103 103 96 84 74 68 67 73 83 90 93 95 98 104 106 104 102 102 102 101 100 99 99 99 101 99 97 98 98 97 98 99 98 96 94 89 86 88 90 89 87 88 88 86 89 90 85 78 68 63 70 78 82 85 92 101 108 110 111 110 111 111 104 98
101 101 101 101 101 100 98 96 97 99 101 104 103 103 106 109 109 109 107 107 107 103 103 106 105 97 86 79 74 72 78 87 94 97 97 99 102 104 102 98 97 99 101 102 103 103 101 100 101 100 99 100 101 101 101 101 100 98 98 95 92 92 90 86 87 89 88 87 88 88 84 80 74 68 70 73 73 77 85 92 98 103 108 110 109 109 105 95
93 99 103 102 99 97 95 96 98 101 102 102 102 102 103 103 101 101 103 103 102 103 110 110 98 84 78 78 81 87 95 99 99 99 100 101 101 99 97 98 99 100 100 98 99 103 103 100 101 105 105 105 106 104 101 99 97 96 96 96 95 95 89 81 80 80 80 82 82 83 81 78 76 71 72 75 73 75 80 77 74 76 80 85 86 86 86 83
90 97 100 100 97 96 98 100 101 101 99 97 97 95 93 93 94 96 97 100 106 112 111 99 84 77 79 84 91 99 103 101 98 98 100 101 102 102 102 103 103 101 98 95 95 97 100 98 96 98 99 97 93 91 88 86 84 85 89 92 93 96 92 84 77 72 71 69 69 75 75 70 72 69 67 70 70 69 67 58 51 49 48 51 53 55 58 59
95 93 95 98 99 103 105 103 101 99 95 91 89 87 88 92 93 94 99 108 114 108 96 85 80 82 87 93 99 102 101 99 98 99 103 106 107 108 107 106 104 101 97 98 99 98 100 101 95 92 94 92 84 81 81 80 79 79 82 87 89 90 90 85 76 69 67 61 55 64 66 60 59 55 52 55 53 49 45 39 35 32 31 32 33 35 38 39
93 91 93 96 99 104 107 105 100 94 89 87 87 87 91 94 96 102 110 112 103 89 81 81 83 88 96 99 99 98 97 99 100 101 103 105 106 108 109 107 105 103 101 101 100 97 100 106 103 96 97 99 93 88 85 83 84 83 82 86 86 83 82 79 72 66 68 63 52 52 51 46 43 37 38 44 40 35 34 31 30 29 29 29 28 28 28 29
85 91 94 93 95 99 100 97 92 86 84 85 85 87 93 100 106 110 106 96 85 80 82 86 89 94 99 99 96 96 98 100 100 101 101 104 109 110 107 106 105 106 104 101 99 98 98 105 110 100 91 92 95 95 94 91 91 90 86 82 79 75 71 70 69 66 62 55 43 39 38 34 31 28 30 36 33 29 30 29 29 29 27 26 24 23 22 22
82 89 90 89 92 94 93 90 85 81 81 83 86 92 101 106 104 97 87 81 80 82 87 93 97 100 103 104 103 103 103 102 101 104 106 108 109 107 106 107 107 105 103 100 100 101 96 96 105 104 93 91 96 99 100 96 91 89 84 75 70 68 64 61 63 61 52 40 30 27 28 27 27 29 32 33 30 27 26 24 23 20 19 18 17 16 16 15
81 86 90 90 93 94 90 86 82 82 86 90 94 96 96 92 85 79 76 76 81 86 91 97 102 103 104 107 108 107 107 106 106 108 109 108 108 109 109 108 105 103 103 102 101 97 89 85 95 103 99 96 93 91 91 88 84 80 77 71 66 63 59 52 50 51 45 35 26 22 21 20 23 28 29 26 23 21 19 17 16 15 16 16 16 16 16 15
80 88 91 87 86 87 85 84 85 88 89 88 84 81 78 76 74 73 74 79 87 93 98 101 103 104 104 106 108 109 109 108 109 109 111 111 109 107 104 103 104 104 102 99 93 89 85 84 90 96 95 92 85 78 78 77 75 74 74 74 69 61 52 43 38 39 38 35 31 24 19 18 20 21 19 18 17 17 15 15 15 15 15 16 17 17 17 17
70 76 79 75 75 77 77 77 77 75 73 72 72 71 70 68 69 73 81 89 96 100 102 103 104 105 105 106 108 109 110 111 110 109 108 105 101 99 99 99 99 98 94 91 90 89 86 83 83 84 83 80 74 69 68 68 68 70 69 65 57 49 42 36 32 32 35 39 39 29 18 15 17 17 16 16 16 15 14 14 13 12 12 13 14 15 15 16
53 58 62 60 60 59 58 59 61 64 68 69 69 68 66 68 75 84 92 97 100 102 103 104 106 106 107 109 110 111 110 108 104 100 97 96 96 96 94 90 87 87 87 87 86 83 80 75 72 70 67 64 62 62 64 63 60 58 56 52 47 41 39 37 35 32 32 36 37 30 20 16 15 15 15 15 14 13 13 12 11 10 10 10 10 11 13 14
41 43 43 41 43 46 52 61 67 69 69 67 66 69 73 80 87 91 94 96 98 99 101 104 107 107 108 110 109 105 101 96 93 92 92 92 90 88 85 81 81 81 78 76 74 70 66 61 58 59 61 62 64 67 65 60 54 50 47 47 45 43 41 40 38 33 28 27 28 25 20 17 15 14 14 13 11 11 11 10 10 9 9 8 8 9 10 11
31 32 36 42 48 56 65 71 72 68 65 66 71 78 83 87 90 91 91 93 94 97 101 105 107 106 105 102 98 94 92 90 89 87 85 83 80 79 79 77 75 72 68 64 62 58 56 54 54 56 57 55 55 56 53 49 48 46 43 42 43 42 40 36 31 26 22 20 21 21 19 16 16 16 14 12 11 10 10 9 9 8 7 7 6 7 7 8
34 41 49 57 64 70 73 72 68 67 70 75 81 86 88 89 89 89 90 93 97 101 104 105 105 104 101 96 91 88 86 83 80 77 75 76 76 76 74 70 66 62 58 54 52 53 57 60 61 59 51 41 34 33 33 32 33 35 35 35 35 33 31 28 25 23 20 18 20 21 20 17 17 17 14 12 11 10 10 9 9 7 6 6 5 5 6 6
47 55 63 69 72 72 71 69 70 74 80 85 89 91 90 90 90 90 93 97 100 103 105 104 103 99 94 88 83 79 76 74 74 75 75 74 71 69 67 63 57 52 49 50 53 58 61 60 56 51 45 37 32 31 30 29 30 31 29 26 24 22 23 23 24 24 22 20 21 21 20 17 17 17 14 12 11 10 10 10 10 9 7 6 5 5 5 5
61 68 73 74 71 68 68 73 78 83 89 92 93 94 92 92 92 93 95 98 100 102 102 99 94 87 82 78 77 76 77 79 80 79 75 70 65 61 57 54 51 51 54 58 59 56 52 47 42 42 42 39 36 35 36 35 32 29 24 21 20 20 20 21 22 21 20 18 18 17 17 16 16 15 13 12 11 10 10 10 10 9 9 8 7 6 6 6
73 76 73 69 69 72 77 82 86 91 96 98 98 97 94 92 94 96 97 99 99 98 93 87 82 79 79 80 83 85 87 85 80 74 69 64 59 54 51 52 56 62 63 59 51 43 38 36 35 37 41 41 38 38 38 35 30 25 23 21 21 20 20 20 20 19 17 16 15 14 14 14 13 12 11 11 9 9 9 9 9 9 9 8 8 7 7 7
73 70 68 70 76 83 87 91 96 100 101 100 98 95 93 92 94 96 96 94 91 87 83 80 79 81 83 85 87 86 83 78 72 67 62 58 54 53 56 59 60 58 52 45 39 34 33 33 32 34 39 41 39 36 33 30 27 26 24 23 22 21 20 19 19 17 16 15 14 12 12 11 10 9 9 8 8 7 7 8 8 9 8 8 7 7 6 6
69 70 75 80 85 91 95 98 100 100 98 96 94 95 95 94 93 94 93 89 84 81 81 82 82 82 82 83 80 75 70 66 63 59 55 54 56 58 59 56 49 41 36 33 32 32 32 32 31 32 36 37 34 30 29 28 27 26 24 22 21 19 18 18 18 16 15 13 12 12 11 10 9 8 8 7 7 8 8 8 8 8 8 7 6 6 5 5
73 77 81 85 90 94 98 99 98 96 94 94 96 98 99 97 94 92 88 84 84 85 86 84 81 79 76 73 69 65 61 57 53 51 53 56 58 55 48 41 34 30 28 28 29 29 29 31 31 30 30 29 27 27 26 26 24 23 22 20 18 17 17 17 16 15 13 11 10 9 9 8 8 7 8 8 8 8 7 7 7 6 6 5 5 5 5 4
81 83 86 91 96 98 99 99 98 96 94 96 99 101 98 94 90 87 85 86 89 88 84 80 76 72 69 64 60 56 52 50 51 54 56 54 49 42 36 32 29 27 27 26 27 28 29 30 28 25 23 23 24 23 23 23 22 21 19 17 16 15 14 13 13 14 13 10 8 8 7 7 7 7 7 6 6 6 6 6 6 5 4 4 4 5 5 4
Wind_Speed
38 38 39 41 40 39 39 40 39 39 39 40 40 39 39 40 41 42 43 44 44 43 43 43 45 46 47 47 46 45 45 44 44 44 44 45 45 46 46 47 48 49 50 52 54 56 57 58 59 60 61 62 63 63 64 64 64 64 65 65 64 63 63 63 62 63 64 64 64 63 61 60 59 57 56 55 56 56 56 58 56 54 55 55 53 52 53 53
38 38 38 39 37 36 37 38 37 37 38 38 38 38 38 39 40 40 39 39 38 39 40 42 43 43 43 41 40 40 39 39 40 41 42 42 43 44 46 47 49 50 52 53 55 56 58 59 59 60 61 62 63 63 63 64 64 64 63 63 63 62 63 63 62 63 63 64 63 62 61 61 60 58 57 57 56 57 58 60 56 54 57 55 53 53 54 55
37 37 36 35 33 34 35 35 35 36 37 37 37 37 37 36 35 34 34 34 36 39 40 41 40 39 38 37 36 36 37 38 39 40 41 42 44 46 47 48 50 51 53 55 56 57 58 59 60 61 61 61 62 62 62 62 62 62 62 62 62 62 63 64 63 62 62 61 61 60 60 60 60 59 58 58 58 60 62 60 56 55 57 57 55 56 57 58
35 35 34 32 31 32 33 33 35 35 35 36 37 36 35 34 33 34 34 35 38 38 37 37 36 35 35 35 36 37 38 39 39 40 42 43 45 47 48 49 51 53 54 56 57 58 59 59 60 60 60 60 60 60 60 60 60 61 62 62 63 63 64 64 62 61 60 58 58 58 58 59 60 59 59 58 58 63 65 59 55 55 57 58 57 59 61 62
35 34 32 30 30 30 30 32 33 33 34 34 35 34 33 33 33 34 35 37 37 34 31 30 31 32 33 35 37 39 40 40 41 41 43 44 46 48 49 51 52 54 55 56 57 58 59 59 59 59 59 59 58 58 57 58 60 62 63 63 63 64 64 63 61 60 58 57 57 57 58 59 59 59 59 60 60 64 65 59 57 57 58 59 59 60 62 63
36 34 32 31 30 29 29 30 30 30 31 31 31 30 30 30 31 32 33 34 34 33 32 31 32 34 36 37 38 39 40 41 42 43 45 46 48 50 51 52 53 54 55 56 57 58 58 58 58 57 57 56 56 56 57 59 60 62 63 63 63 63 62 62 60 59 58 57 57 57 58 59 59 59 60 62 61 61 62 59 58 59 60 61 61 61 62 63
36 34 33 32 30 29 28 27 26 25 25 26 27 26 27 27 28 28 29 31 31 32 33 35 36 38 38 39 39 40 41 42 44 45 46 47 49 50 51 52 53 54 55 56 57 57 56 56 55 55 54 55 56 57 58 60 61 62 63 63 62 61 60 60 59 59 58 58 58 58 59 60 59 59 61 63 60 59 60 60 60 61 61 61 62 62 62 63
36 35 33 32 31 30 28 25 23 24 24 25 25 26 26 25 25 25 27 29 32 33 34 36 37 38 38 39 39 40 42 43 44 45 46 48 49 50 51 52 53 54 55 55 54 54 53 53 53 53 54 55 57 58 59 60 61 61 61 61 61 60 59 59 58 58 58 58 58 58 60 61 60 58 60 61 58 58 60 61 61 61 61 62 63 63 63 64
37 35 34 33 32 30 27 27 28 28 28 28 28 29 29 29 29 28 28 30 31 32 34 35 36 37 38 38 39 40 41 43 44 45 47 48 49 50 51 51 52 52 52 52 51 51 51 51 52 54 55 57 58 59 60 60 60 59 59 60 59 59 59 58 57 57 57 58 57 58 60 62 60 57 58 58 57 59 60 60 61 61 61 63 63 63 63 64
37 35 34 33 31 30 29 32 34 34 32 32 31 32 32 32 31 31 31 31 31 31 33 34 35 36 37 37 37 38 40 41 42 43 45 46 47 48 49 49 49 49 49 49 49 50 50 52 53 55 56 58 59 59 60 59 58 58 58 58 58 58 58 57 57 57 56 57 56 56 59 62 58 55 55 55 55 57 58 59 60 60 61 62 62 63 63 63
37 35 33 31 31 32 34 36 37 37 36 36 35 34 35 35 34 34 33 33 33 33 34 34 35 35 35 35 35 37 38 39 40 42 43 44 45 46 46 46 46 46 47 48 49 50 51 53 54 56 57 58 58 58 58 58 57 57 57 57 57 56 57 55 55 56 55 55 54 54 58 61 56 53 53 52 53 55 56 57 57 58 59 60 60 61 61 62
37 35 32 31 32 35 37 38 38 38 38 38 37 38 38 37 37 35 34 34 33 33 33 34 34 34 34 35 35 36 37 39 40 42 42 43 43 43 43 44 45 46 47 48 49 51 52 54 55 56 57 57 57 57 57 56 56 55 55 56 56 56 55 54 54 54 53 53 53 53 58 60 55 52 52 51 51 53 54 55 54 54 55 57 58 59 60 61
36 36 34 35 35 34 34 34 34 35 36 36 36 37 37 37 36 34 33 33 33 33 33 33 33 34 35 36 36 37 38 40 41 42 42 42 41 42 43 44 45 46 47 49 50 52 53 54 55 56 56 56 56 55 55 55 55 55 55 55 56 56 55 53 53 53 53 52 53 52 56 59 56 53 52 51 51 52 53 53 52 52 52 53 54 56 58 59
35 36 37 38 36 33 31 30 30 31 33 34 34 34 34 34 33 33 33 33 33 33 33 33 34 36 37 37 37 38 39 40 41 42 41 41 41 42 43 44 45 47 49 50 51 53 54 54 55 55 55 54 55 55 55 55 54 54 54 54 54 55 54 53 53 53 52 52 52 52 55 58 56 53 52 51 51 53 54 52 51 52 51 52 52 53 55 56
35 36 38 37 35 34 32 30 29 30 31 31 32 32 32 32 32 33 33 33 32 32 32 34 35 36 37 37 38 39 40 40 41 41 40 40 41 43 44 45 46 48 50 51 52 53 54 54 54 54 54 54 54 55 55 54 54 53 54 54 54 54 54 52 52 52 52 52 52 51 54 58 57 53 52 51 52 54 55 54 53 52 52 52 52 52 53 54
33 34 36 35 34 34 32 31 29 29 29 30 31 31 31 31 31 32 32 32 32 32 32 34 35 35 36 37 39 39 40 40 40 40 39 41 42 44 45 46 48 49 50 52 53 53 53 53 53 53 53 54 54 54 54 53 53 53 54 55 54 54 53 52 52 52 51 51 51 50 52 57 57 55 53 52 52 54 56 56 55 53 53 53 53 53 53 53
33 33 34 32 32 32 31 30 29 29 30 30 31 31 30 30 30 31 31 32 32 33 34 35 36 36 37 38 39 40 39 39 39 39 40 42 44 45 47 48 49 50 51 52 52 52 53 52 53 53 53 54 54 54 54 53 54 54 55 56 55 54 53 51 51 51 50 50 51 50 50 55 57 56 54 53 53 54 55 56 55 54 54 54 53 53 53 52
36 36 33 28 29 30 30 31 31 31 32 33 33 33 32 32 31 31 32 33 34 35 35 36 37 37 38 39 39 39 39 39 39 40 42 44 45 46 48 49 50 51 51 51 51 51 52 52 53 53 53 54 54 54 54 54 55 55 56 56 57 56 55 52 51 51 50 50 51 49 49 53 57 59 57 55 54 55 55 55 54 52 52 53 53 53 52 52
38 36 31 29 30 31 32 33 33 34 35 35 35 35 35 34 33 33 34 35 36 36 37 37 38 38 39 39 39 39 39 39 41 42 43 45 46 47 48 50 50 51 51 50 50 51 52 53 53 54 54 54 54 54 54 55 55 56 57 58 58 58 57 55 53 52 50 49 51 50 48 52 57 60 62 61 58 57 56 54 52 50 49 51 52 53 53 52
35 33 31 32 33 34 35 36 36 37 37 37 37 37 36 36 35 36 36 37 37 37 37 38 38 39 39 39 39 39 40 41 42 43 44 46 47 48 49 49 50 49 49 50 50 51 52 53 54 55 55 55 55 55 56 56 56 57 59 59 59 59 58 58 56 54 52 50 51 51 49 51 55 59 65 67 64 62 59 56 52 49 49 50 52 54 55 55
34 33 34 35 35 36 38 38 39 39 38 38 37 37 37 37 38 38 38 38 38 38 37 38 38 38 38 38 39 40 41 42 43 44 46 47 48 49 49 49 49 48 49 50 51 52 53 53 54 55 55 55 56 56 57 57 57 58 60 61 62 61 59 60 59 57 55 52 51 52 49 51 55 58 65 71 70 66 65 60 54 51 52 51 51 54 57 59
36 36 36 36 37 38 38 39 39 38 38 37 37 36 36 37 38 38 38 38 37 37 37 38 38 38 38 39 40 41 42 43 44 46 47 48 49 49 49 48 48 48 48 50 51 53 54 54 54 56 55 56 57 58 59 59 58 59 61 63 64 64 61 61 62 60 58 55 53 53 50 49 54 58 64 73 74 70 69 68 61 57 57 56 54 53 55 59
37 36 35 35 35 35 36 37 36 35 35 34 33 33 33 34 35 36 36 36 36 36 37 37 38 39 39 40 41 42 43 44 46 48 48 49 49 49 48 48 48 48 48 50 51 54 56 54 54 56 56 57 59 60 61 60 60 61 63 64 65 66 65 62 62 62 60 59 56 55 52 49 52 56 62 72 75 72 73 74 70 67 66 64 61 57 56 58
36 35 33 32 31 32 34 34 32 31 30 29 29 30 31 32 33 33 33 34 35 36 36 37 38 39 40 41 42 43 45 46 47 49 49 49 49 48 48 47 48 48 48 50 52 55 57 55 55 56 58 59 60 63 64 62 61 63 65 67 67 67 68 66 64 63 61 60 60 59 56 50 51 55 59 69 73 71 74 76 76 75 73 72 69 67 64 62
33 32 31 30 29 31 31 30 28 27 27 27 28 29 30 30 31 31 31 33 35 36 37 38 38 40 41 42 44 45 46 47 48 49 49 49 48 47 47 47 48 49 50 51 52 55 57 56 55 57 59 61 62 65 66 65 63 65 68 70 69 69 69 69 68 65 62 61 61 63 63 57 52 54 58 64 68 69 71 73 75 77 77 77 76 74 72 69
32 31 30 28 28 29 29 28 27 27 27 27 27 28 28 29 30 31 32 34 36 37 38 38 39 41 42 44 45 46 46 48 49 49 48 48 47 47 48 48 48 49 51 51 52 55 56 57 57 58 60 62 64 66 68 68 67 67 69 71 71 71 71 70 70 69 66 65 62 63 69 66 56 55 59 62 64 67 69 71 73 75 76 78 80 79 78 76
29 28 26 26 28 29 29 28 28 28 27 28 28 27 28 29 30 32 33 35 37 38 39 40 41 42 44 44 45 46 47 48 49 48 47 47 48 47 48 48 49 50 51 51 52 56 57 57 59 61 62 64 66 67 69 71 71 71 71 72 72 73 73 72 73 72 71 70 65 64 73 74 63 59 61 62 64 67 69 71 74 76 75 75 77 81 82 81
28 26 25 27 30 31 31 30 29 29 29 29 28 28 29 31 32 33 35 36 38 39 40 41 42 43 44 45 46 47 48 48 48 48 48 48 48 48 48 49 50 50 51 51 53 57 58 58 61 62 64 66 67 69 72 74 74 74 74 74 75 75 75 75 75 75 76 74 68 67 74 77 69 64 65 65 67 69 71 73 75 78 78 77 78 80 83 84
27 26 27 30 31 32 32 31 30 30 30 30 29 30 31 32 33 35 36 37 39 40 41 42 43 44 44 45 46 47 47 47 47 48 49 49 49 49 49 49 50 51 53 53 54 57 59 60 62 64 66 67 69 72 74 75 77 77 78 78 78 79 78 79 79 79 80 77 72 72 76 78 74 69 69 71 72 73 74 77 78 79 81 82 82 83 83 85
28 28 30 31 32 33 32 32 31 31 31 30 30 31 32 33 34 36 37 39 40 41 42 43 43 44 45 47 46 46 47 47 48 49 49 50 50 50 50 50 51 52 54 56 57 59 60 62 64 65 67 69 71 74 76 77 78 79 80 81 82 82 83 83 83 83 84 81 78 78 80 81 79 73 73 76 76 76 77 79 81 82 83 84 85 86 86 86
29 30 31 33 33 32 31 31 31 31 31 31 32 32 33 34 36 37 38 40 40 42 43 43 44 45 47 47 47 46 46 47 48 49 50 51 51 51 51 52 53 54 56 57 59 60 62 64 65 67 70 72 74 76 78 79 80 82 83 84 85 86 87 87 86 86 87 86 84 84 84 85 84 80 79 80 80 80 80 81 83 85 86 87 87 88 88 87
30 31 32 32 32 32 31 30 31 31 31 32 33 34 35 36 37 38 39 40 41 42 44 45 45 46 46 46 46 47 47 48 49 51 52 53 53 53 53 55 56 56 57 59 60 62 64 65 68 70 73 75 77 79 80 81 82 84 85 87 89 89 90 90 88 89 90 89 88 88 88 89 88 85 85 85 84 84 84 84 85 87 88 89 89 89 89 90
31 31 32 32 32 32 31 31 31 31 32 33 34 35 36 37 38 39 40 41 42 43 45 46 46 46 45 45 46 47 49 50 51 52 53 54 55 55 56 58 59 59 60 61 61 62 64 66 69 73 76 78 80 80 81 82 83 85 87 89 92 93 95 94 92 92 92 92 91 91 92 93 91 89 89 89 88 88 89 88 88 88 89 90 91 91 91 91
29 30 31 31 31 31 31 31 32 33 34 35 36 37 37 38 39 39 40 42 43 45 46 47 46 45 45 45 47 48 50 52 54 55 55 56 57 58 59 61 62 64 65 66 65 64 64 67 71 75 77 80 82 82 82 83 85 87 89 92 94 96 99 99 97 96 96 95 93 92 93 94 94 93 92 92 92 93 93 92 90 90 90 91 91 91 92 91
28 29 29 30 30 30 31 32 34 35 35 36 37 37 38 39 40 41 42 43 44 45 45 45 45 45 45 46 48 50 52 54 56 57 57 57 58 60 62 64 66 68 69 70 70 69 68 70 74 77 79 81 83 84 85 86 88 89 91 93 95 97 100 101 100 100 100 99 95 93 94 95 95 95 94 95 96 96 95 94 92 91 90 90 90 90 90 90
28 28 28 30 30 31 33 34 35 35 36 37 37 38 39 40 41 42 43 44 44 44 44 44 45 45 47 48 50 52 53 55 56 58 58 60 61 63 65 67 69 71 73 74 74 75 73 73 76 80 82 83 85 86 88 89 91 92 94 95 97 98 100 102 101 100 102 102 97 94 95 95 95 95 96 98 99 98 97 96 94 94 93 92 92 91 91 91
27 28 29 30 31 33 34 35 35 36 36 37 38 38 40 41 42 43 43 43 43 43 43 44 45 47 49 51 52 54 55 56 57 59 60 62 63 65 68 70 72 73 75 77 79 80 79 75 76 80 84 85 87 89 91 92 94 96 96 97 98 99 100 102 102 101 102 102 99 97 96 96 96 96 97 99 99 97 97 97 96 96 96 95 94 93 93 92
26 28 29 30 32 33 34 35 36 36 37 37 38 39 40 41 42 42 42 41 41 42 43 45 47 49 50 52 54 56 57 57 59 60 61 63 66 68 70 72 74 76 78 81 82 83 83 79 77 81 85 88 90 91 93 94 95 97 97 98 99 99 100 101 102 104 104 103 100 97 96 95 95 97 99 99 98 98 97 97 98 97 97 97 95 94 93 91
25 27 28 30 31 33 34 34 35 36 37 38 38 39 39 40 40 40 40 40 41 43 45 46 48 50 51 53 55 57 58 58 60 61 63 66 68 71 73 74 77 79 81 83 83 84 85 83 81 84 87 90 91 92 93 94 95 97 98 99 99 100 100 101 102 105 107 106 103 100 96 93 94 98 100 99 99 99 98 98 97 97 97 97 96 94 93 92
25 27 28 29 30 31 32 33 34 35 36 37 37 37 37 38 38 39 40 41 43 44 46 47 49 51 53 54 55 57 58 60 61 64 66 68 71 73 75 77 79 81 83 83 84 85 86 87 86 87 89 92 93 93 94 95 96 97 99 100 100 101 102 102 101 103 106 107 106 104 100 95 96 99 101 100 101 101 99 98 97 96 96 96 95 94 93 92
25 26 27 28 29 30 31 32 33 34 34 34 35 35 36 37 38 40 41 42 44 45 47 49 51 53 54 55 56 58 60 62 64 66 68 71 73 75 77 79 80 81 83 84 86 87 88 89 89 89 90 92 93 94 94 95 96 98 100 101 101 102 102 102 101 101 103 106 107 108 104 99 99 101 101 101 101 100 99 98 96 95 95 95 95 95 94 93
24 25 26 27 27 28 29 30 30 31 31 32 33 35 36 38 39 40 42 43 45 47 49 51 52 54 55 56 58 60 62 64 67 69 71 73 76 77 79 80 80 82 83 85 87 88 89 89 89 90 90 92 93 93 94 95 96 99 101 102 102 102 103 103 103 102 102 104 107 109 107 102 100 100 99 99 99 99 98 97 96 95 95 94 94 94 94 93
23 24 24 25 25 26 26 27 28 30 31 32 34 36 37 39 40 41 43 45 47 49 50 52 53 55 56 58 60 62 65 67 69 71 73 75 76 77 79 80 81 83 84 86 87 88 90 90 90 90 90 92 93 95 96 96 97 99 100 101 102 102 103 104 105 105 104 103 105 107 106 103 101 99 99 99 98 98 99 99 98 97 96 94 93 92 92 91
22 22 22 23 23 24 25 26 28 30 32 34 35 37 38 40 42 43 45 47 49 50 51 53 55 56 59 61 63 65 67 69 71 73 74 75 76 78 80 81 82 84 85 86 88 89 91 92 92 91 90 90 91 93 94 94 95 97 98 99 100 101 102 103 104 105 104 102 103 105 104 103 103 103 102 101 100 100 100 100 99 99 97 94 91 89 89 88
20 20 21 21 23 24 26 28 30 32 33 35 37 39 40 42 44 46 47 48 50 51 52 54 57 59 61 64 66 68 70 71 72 73 75 76 78 79 81 82 83 85 86 87 88 90 91 92 93 94 93 93 92 92 93 93 94 95 96 98 99 100 101 102 103 104 103 102 102 104 105 104 105 107 106 104 103 103 102 101 101 100 97 94 90 87 86 85
18 19 20 22 23 25 27 29 31 33 35 37 39 41 43 44 46 47 48 49 51 53 55 57 60 62 64 67 68 70 71 72 73 75 77 78 80 81 82 84 85 86 87 88 88 89 90 92 93 94 95 96 95 95 95 95 96 96 97 98 100 100 101 102 103 104 105 104 103 105 106 105 105 108 108 107 106 105 104 103 103 102 100 97 92 88 86 84
18 20 21 23 25 27 29 31 33 34 36 39 41 43 45 46 47 49 50 51 53 55 58 60 62 64 66 68 69 71 73 74 76 77 79 80 81 83 84 85 86 87 87 88 89 89 90 91 93 93 94 96 96 96 96 97 98 99 99 99 100 101 101 102 103 104 105 106 105 105 107 107 107 107 108 107 107 105 104 103 103 102 101 98 94 90 87 86
19 21 23 25 27 29 31 33 34 36 38 40 42 44 46 47 48 50 52 54 56 58 60 62 64 66 67 69 71 73 75 76 78 79 80 82 83 84 85 86 86 86 87 88 89 90 90 91 92 92 93 95 96 96 97 99 100 100 100 100 100 100 101 101 103 104 105 107 108 107 107 107 107 107 107 106 106 104 102 100 99 99 97 95 92 89 86 85
21 23 25 27 29 31 33 34 36 38 40 42 43 45 47 49 51 53 55 57 59 61 62 64 66 68 69 71 72 74 75 77 78 80 82 83 84 84 85 85 86 86 87 88 88 89 90 91 91 91 91 93 95 96 98 99 100 100 100 100 100 100 101 101 102 104 105 107 108 108 107 107 106 106 105 104 103 101 99 96 94 94 94 92 89 86 84 83
22 24 26 28 30 32 34 36 38 40 41 43 44 47 49 52 54 56 58 60 61 63 64 66 68 70 71 72 73 75 76 78 79 80 81 82 82 83 83 84 85 86 86 87 88 89 90 91 91 91 91 93 96 97 98 98 99 99 100 100 100 100 101 102 103 104 105 106 106 106 106 105 104 103 101 100 99 97 96 94 92 91 91 89 87 86 84 82
24 26 28 30 32 34 36 38 39 41 42 44 47 49 52 54 56 58 60 61 63 65 67 69 70 72 73 74 75 76 78 79 79 80 80 80 81 82 83 84 85 85 86 87 88 89 89 90 91 92 92 94 95 96 96 97 98 99 100 100 100 101 102 102 103 103 105 106 104 101 101 101 100 98 97 95 94 93 93 92 91 89 87 86 84 83 82 81
26 28 30 32 34 35 37 39 41 43 45 47 50 52 54 56 57 59 61 63 65 67 69 70 72 73 74 76 77 78 79 79 79 80 80 80 81 82 83 84 85 86 86 86 87 88 89 90 92 93 93 93 94 95 95 97 99 100 101 101 101 102 102 101 100 100 103 105 103 101 99 97 95 93 92 89 88 89 89 90 90 88 85 83 82 81 79 78
Wind_Direction
212 214 216 218 217 218 220 220 221 221 222 224 227 227 227 228 228 229 231 233 235 237 238 239 240 243 247 250 252 254 256 257 258 259 261 261 263 263 264 264 264 265 266 266 266 267 268 269 271 273 275 277 279 280 281 282 283 284 285 286 286 287 288 288 289 290 291 291 290 290 289 287 286 284 283 281 279 278 276 274 272 271 270 267 266 266 265 263
212 214 216 219 218 218 219 220 220 220 221 223 226 226 226 227 229 230 232 234 237 238 238 239 242 245 249 252 254 256 257 258 259 260 260 261 261 262 262 263 264 265 265 265 266 268 269 271 273 275 277 278 280 281 282 283 284 285 285 285 286 287 287 288 289 290 290 290 289 289 288 287 286 284 283 281 280 278 275 273 274 273 272 271 269 266 264 262
211 214 215 218 217 216 218 218 218 219 219 221 224 226 226 228 229 229 230 234 237 238 240 242 246 249 251 253 254 255 256 257 258 258 259 260 260 261 262 262 263 264 264 265 267 269 271 273 275 277 278 280 282 283 284 285 285 285 285 286 287 287 288 288 289 289 288 287 287 286 286 286 285 284 283 281 280 278 274 274 276 275 274 274 272 269 266 263
209 213 214 215 214 214 214 215 216 218 219 221 224 226 227 227 226 225 227 231 236 242 246 249 250 252 252 253 253 253 254 255 257 258 259 259 259 260 260 261 262 263 265 267 269 272 274 276 278 279 281 282 283 284 285 285 285 286 286 287 288 288 288 288 288 287 287 287 286 286 285 284 283 283 282 280 278 276 276 278 278 277 275 274 271 268 266 264
207 209 210 210 211 212 212 214 216 218 220 222 224 226 226 227 227 227 228 232 237 242 245 246 247 248 248 250 251 252 254 255 256 258 259 259 259 259 260 262 264 266 268 271 273 275 277 279 280 282 283 283 284 284 284 285 286 287 287 288 288 288 289 288 288 288 288 288 287 287 286 284 283 283 281 279 276 276 279 282 281 278 275 272 270 267 265 264
206 206 207 206 209 211 211 214 217 219 222 223 224 224 224 225 228 229 232 235 238 240 239 238 239 241 244 247 250 252 253 254 256 257 258 259 260 262 263 265 267 269 271 273 275 277 279 281 282 283 283 283 284 284 285 286 286 287 288 288 289 289 289 290 290 290 290 290 289 288 286 285 284 283 282 279 279 280 282 283 280 277 274 272 270 268 266 264
205 205 205 205 206 209 210 212 216 218 220 222 222 222 225 226 229 232 233 235 236 238 239 239 241 243 246 249 251 254 254 255 257 258 259 261 263 265 267 269 270 272 273 275 277 279 281 282 283 283 284 285 285 286 287 287 287 288 289 290 290 290 291 291 292 292 292 291 290 289 287 286 284 284 282 282 283 284 282 280 277 275 274 272 270 269 267 265
204 203 205 205 205 208 207 204 205 207 208 211 214 217 221 224 225 228 230 233 235 237 239 241 243 246 249 252 254 255 257 258 260 262 263 265 267 269 270 271 272 274 276 278 280 282 283 284 285 285 286 287 287 287 288 288 289 289 290 291 291 292 292 293 293 293 293 292 291 290 288 286 285 285 284 285 286 283 280 278 277 275 274 272 271 269 268 266
202 202 204 206 205 206 203 196 195 202 204 206 209 212 215 217 219 222 227 234 238 240 242 244 246 247 250 253 256 258 261 263 265 266 267 268 269 270 272 273 275 277 280 281 283 284 285 286 286 287 288 288 288 289 289 289 290 291 291 292 292 293 293 293 294 293 293 292 292 291 289 287 286 287 286 286 285 282 281 279 278 276 274 273 272 271 270 268
200 201 203 206 205 201 199 197 196 201 207 208 210 212 215 219 222 227 233 240 243 244 245 247 249 251 253 257 261 264 266 268 269 269 269 270 272 273 275 277 279 281 283 284 285 285 286 287 287 288 288 289 289 290 290 291 291 292 292 292 293 293 293 294 294 294 293 293 292 291 288 287 288 288 286 286 284 282 281 279 278 277 276 276 275 274 272 271
199 200 202 203 204 200 198 201 201 203 209 212 214 218 221 226 230 237 243 247 248 248 249 251 253 256 259 263 266 269 270 271 271 272 273 275 276 278 279 280 282 283 284 285 286 286 287 287 288 288 289 289 290 290 291 291 291 292 292 292 293 293 294 294 294 294 293 293 292 291 289 287 288 288 286 285 283 282 280 278 278 277 277 276 275 274 273 272
199 199 200 200 205 205 203 205 206 208 213 215 219 223 227 231 238 244 248 250 251 253 254 256 258 260 264 268 271 272 273 274 275 277 278 279 279 280 281 282 283 284 284 285 286 287 287 288 288 289 289 290 290 290 290 291 291 292 292 293 293 293 293 294 294 294 294 294 293 292 290 289 289 288 286 285 284 282 280 278 278 277 276 274 273 272 271 271
201 199 199 202 207 211 210 210 212 215 219 222 225 229 233 238 243 247 251 253 256 258 259 261 263 265 269 272 274 275 275 276 277 279 280 280 280 281 282 283 284 285 285 286 287 287 288 289 289 289 289 289 290 290 290 291 291 292 292 293 294 295 295 296 296 295 296 295 295 294 291 290 291 289 288 287 285 283 281 280 279 278 276 275 273 272 271 270
203 200 202 205 208 213 216 216 218 221 224 227 231 234 239 243 246 249 253 257 260 262 264 266 269 271 272 273 274 274 276 277 279 280 280 280 281 283 284 284 285 286 287 288 288 289 289 289 289 289 289 289 290 290 291 291 292 292 293 294 295 296 297 298 298 298 298 297 296 295 293 292 292 292 291 290 288 286 284 282 281 279 278 276 275 274 273 272
205 203 207 209 209 212 217 219 221 225 228 231 235 238 241 245 248 252 256 259 263 266 269 271 272 272 272 273 274 275 278 280 281 282 282 282 283 284 285 285 286 287 288 289 290 290 289 289 289 289 289 290 290 291 291 292 293 294 295 295 296 297 298 299 300 300 300 300 298 297 295 294 293 293 292 291 290 289 287 285 283 282 281 280 279 277 276 276
209 209 211 210 210 214 217 221 224 229 233 237 239 242 245 248 251 254 258 261 265 269 271 272 273 273 274 275 276 278 281 282 283 283 283 284 285 285 286 287 288 289 289 290 290 290 289 289 289 290 290 291 291 292 293 294 295 296 296 296 297 297 298 300 300 301 302 301 300 299 298 296 295 294 293 292 291 290 289 288 286 286 285 285 284 283 281 280
212 216 216 211 212 216 219 224 228 233 238 241 245 248 250 253 255 258 262 266 268 270 272 273 274 276 277 278 280 282 283 284 284 284 284 285 285 286 287 288 289 289 290 290 290 289 289 290 290 291 291 292 293 294 295 296 297 297 297 297 297 298 298 300 301 302 303 303 302 301 300 298 296 295 293 292 290 289 288 288 288 289 290 289 288 286 285 283
209 216 220 217 216 219 221 225 229 233 238 242 248 252 255 258 261 264 267 269 271 272 273 275 277 279 281 282 283 284 284 284 284 284 284 285 286 287 288 289 290 290 290 289 289 289 289 290 290 291 292 294 295 296 297 298 298 297 297 298 298 298 299 300 302 302 304 304 302 301 301 299 298 297 294 291 289 287 286 287 289 291 291 290 288 286 284 282
210 216 221 221 221 222 224 227 231 235 240 244 249 253 257 260 264 267 269 271 273 274 275 278 280 282 283 284 285 284 284 284 284 284 285 286 286 287 289 290 290 290 289 289 289 289 290 291 292 293 295 296 297 298 298 298 298 298 298 298 298 299 300 302 302 303 303 304 303 301 301 301 300 300 297 294 291 289 288 288 290 291 291 291 289 286 283 280
213 217 221 223 224 226 229 232 236 241 244 248 252 255 259 262 265 268 270 272 274 275 277 280 281 283 283 284 283 283 284 284 284 285 285 286 288 289 289 290 290 289 289 290 290 290 291 293 295 296 297 298 298 298 298 297 298 298 298 298 298 299 301 302 303 303 303 304 303 301 302 301 301 301 300 297 294 293 292 291 292 293 293 292 291 289 286 283
213 216 220 224 226 228 232 237 241 245 248 252 256 259 261 264 265 267 270 273 275 277 279 280 281 281 282 282 282 283 283 284 285 286 287 288 289 290 290 290 289 289 290 290 291 292 293 295 297 298 298 298 298 297 297 297 297 298 298 298 298 299 301 302 303 303 303 303 302 301 302 302 301 301 300 298 297 297 297 295 295 296 294 292 290 289 288 287
212 216 220 224 227 230 234 239 243 247 252 256 259 261 262 263 265 267 269 273 275 276 277 278 278 279 280 281 282 283 284 285 286 287 288 289 290 290 290 290 290 290 291 292 293 294 295 296 298 298 298 298 297 296 296 296 297 297 297 298 299 299 301 302 302 302 303 302 301 301 302 302 301 300 300 298 298 300 300 299 298 297 293 290 288 287 288 288
211 215 219 224 227 232 237 242 246 251 255 258 259 261 262 263 265 267 270 272 273 274 275 276 277 278 280 281 283 284 286 287 288 289 289 290 290 290 290 290 290 291 292 293 295 295 295 297 298 298 298 297 296 296 295 296 297 297 297 297 298 299 300 301 301 301 302 301 301 300 301 301 299 298 298 297 298 301 302 301 301 299 296 294 292 290 289 289
210 214 218 223 227 233 239 244 249 253 255 257 259 261 263 264 266 267 269 270 271 272 273 275 277 279 281 283 284 286 287 288 289 289 290 290 290 290 290 290 291 292 294 295 296 296 296 297 298 297 297 296 296 295 295 296 298 298 298 298 298 299 300 300 299 299 300 300 301 300 299 298 295 294 295 294 296 300 301 302 303 302 300 299 297 294 292 290
209 213 218 222 227 234 241 245 250 254 257 259 261 262 263 264 264 265 266 267 268 271 273 276 278 281 283 285 286 288 288 289 289 289 290 289 289 290 290 291 293 294 295 296 296 296 296 297 297 296 296 296 295 295 296 297 298 298 299 299 299 299 299 300 300 299 299 299 300 300 298 295 292 292 291 290 293 295 296 297 298 299 298 298 296 295 294 292
209 213 218 221 227 235 242 248 254 258 261 263 263 262 262 262 262 263 264 266 268 271 274 277 280 282 285 286 287 288 289 289 289 289 289 289 289 290 292 293 294 295 296 296 296 295 296 297 296 296 296 296 296 296 297 298 299 299 299 299 300 300 300 300 300 299 299 298 299 300 297 293 291 291 289 288 289 289 289 290 291 291 292 293 294 294 293 292
209 212 215 220 228 236 243 251 256 259 261 262 260 259 260 260 261 263 265 267 270 273 277 280 282 284 286 287 288 289 289 290 290 289 289 289 290 291 293 294 295 295 295 296 296 295 295 296 296 296 296 296 297 297 298 298 299 299 299 299 300 300 300 300 299 299 299 298 299 299 294 292 293 291 289 288 287 285 286 286 286 286 285 286 288 289 290 290
206 209 212 220 229 238 245 252 255 256 257 257 257 258 260 261 263 265 267 270 272 276 279 281 283 285 287 288 289 290 291 291 290 290 290 291 292 293 294 295 295 295 295 295 295 294 295 296 296 296 297 297 297 297 298 298 298 299 299 300 300 300 300 300 299 299 298 297 299 296 292 292 293 292 290 289 286 285 284 284 284 285 285 285 284 285 286 287
205 209 215 224 232 239 246 251 253 255 256 257 259 261 263 265 266 268 271 273 276 279 281 283 285 286 288 290 291 292 292 291 291 291 291 292 293 294 294 294 294 294 294 294 295 295 295 296 296 296 297 297 297 297 297 297 299 300 300 301 301 301 300 300 299 299 298 298 299 295 292 292 293 293 292 289 287 286 286 285 284 284 284 285 285 284 284 285
207 212 220 227 234 240 245 249 252 254 257 259 261 264 266 267 269 271 274 276 279 281 283 285 287 289 291 292 293 293 292 292 292 292 292 293 294 294 294 293 293 294 294 295 295 295 296 296 296 297 296 296 296 296 297 298 299 300 300 300 301 301 300 300 300 300 299 299 298 296 294 294 294 294 292 290 288 287 286 286 285 284 284 283 283 283 283 283
209 215 222 227 233 239 243 246 250 254 257 260 263 264 266 269 271 274 276 279 281 283 286 288 291 293 294 294 293 292 292 292 292 292 292 293 293 293 293 293 293 294 295 295 295 296 296 297 297 297 297 297 297 297 297 298 299 299 300 300 300 300 300 300 300 300 299 299 298 297 296 295 295 295 293 291 290 289 287 286 285 284 283 282 282 281 281 281
211 216 222 228 234 238 241 245 249 254 258 261 263 265 268 271 273 276 279 281 284 287 289 292 293 293 293 293 293 292 292 292 292 292 293 292 292 292 293 294 294 294 294 294 295 297 298 298 298 298 298 298 298 298 298 299 299 300 300 300 300 300 299 299 299 298 298 298 297 297 296 296 295 295 293 292 291 289 288 286 284 283 282 281 281 280 280 279
214 218 223 229 234 238 242 246 251 255 258 261 264 267 270 273 276 279 282 285 287 289 291 292 292 292 292 292 292 292 292 292 292 292 292 292 293 294 295 295 294 293 293 293 294 296 297 298 299 299 298 298 297 297 298 298 298 299 299 299 300 299 299 299 299 298 297 297 297 297 297 296 295 295 294 293 292 290 288 286 284 283 282 282 281 280 279 278
220 223 227 231 236 240 244 249 253 256 260 263 266 269 272 276 279 282 284 287 289 290 291 291 291 291 291 291 291 292 292 292 292 293 293 294 294 295 296 295 294 294 294 295 296 296 297 298 298 297 297 297 297 297 297 298 298 299 299 299 300 300 299 300 299 299 298 297 297 297 296 296 296 295 294 293 291 290 288 287 286 284 283 282 281 280 279 278
229 231 234 237 241 244 247 250 254 258 262 265 268 272 276 279 282 285 287 288 289 289 289 289 290 291 291 291 291 292 292 293 293 294 294 294 294 295 295 295 295 296 297 298 298 298 299 299 299 298 298 297 297 298 298 299 299 299 299 299 299 299 299 299 299 299 298 297 297 297 296 296 295 295 294 293 291 290 289 289 288 286 285 284 283 282 281 280
234 237 239 241 244 247 250 253 256 260 264 267 271 275 279 282 285 286 287 288 287 288 288 289 290 291 291 292 292 292 293 293 293 294 294 294 294 295 296 296 297 298 298 299 299 299 300 300 300 299 298 298 298 299 299 299 300 299 299 299 299 298 298 298 298 298 297 297 297 297 296 295 295 295 295 294 293 292 292 291 290 289 288 287 286 285 284 283
235 239 241 244 247 250 253 256 260 264 268 271 275 279 282 284 285 286 286 286 287 288 289 290 291 292 293 294 294 294 295 294 294 294 294 294 295 296 297 297 298 298 299 299 300 300 300 300 299 298 298 298 299 299 300 300 300 300 299 299 298 298 298 297 297 297 296 296 297 297 297 296 296 296 294 293 293 293 293 292 292 290 289 288 287 286 285 283
237 240 243 246 250 253 256 260 265 269 272 276 279 281 283 283 284 284 284 285 287 288 289 291 292 293 294 295 296 296 296 295 295 295 295 296 296 297 297 298 299 299 299 300 300 300 300 300 299 298 299 299 299 299 299 299 299 299 299 298 298 297 297 297 298 298 297 297 297 297 296 296 297 296 294 294 294 293 293 292 292 291 290 289 288 287 286 284
241 244 247 250 254 257 261 265 269 273 276 278 280 281 282 282 282 283 285 286 287 289 290 292 293 294 294 295 296 296 295 296 296 296 296 297 297 297 298 298 299 299 299 299 300 300 300 301 300 299 299 299 299 299 299 299 299 299 298 298 298 298 298 298 298 298 298 298 298 298 297 297 297 296 295 295 295 294 294 293 292 292 292 291 290 290 289 287
246 248 251 255 259 262 266 269 272 274 276 278 279 280 281 281 283 285 286 288 289 291 292 293 293 294 294 295 295 295 295 295 296 296 297 297 297 297 298 298 298 299 299 299 300 300 301 301 301 300 300 299 299 300 300 300 300 299 299 299 299 299 299 299 299 299 299 299 299 299 299 300 299 297 297 297 297 296 295 294 294 293 292 292 291 290 289 289
250 253 256 260 264 267 269 271 273 275 276 277 279 281 282 283 285 287 289 290 291 292 293 293 294 295 295 296 296 295 295 296 296 296 297 297 297 297 298 298 299 299 300 301 301 301 301 301 301 301 300 300 300 300 301 301 301 300 300 299 299 299 299 299 299 299 299 299 300 299 300 301 300 298 298 298 297 296 295 295 294 293 293 292 291 290 290 289
255 258 261 264 266 268 270 272 274 276 278 280 282 283 285 286 288 290 291 292 293 294 294 295 295 295 295 295 295 295 295 296 296 296 297 297 298 299 299 300 300 301 301 301 301 301 301 301 301 301 301 301 301 301 301 302 302 301 301 301 300 301 301 300 300 300 300 300 299 299 300 300 299 298 298 297 296 296 296 295 294 294 293 292 291 291 290 289
260 261 263 265 268 270 273 275 277 280 281 283 284 286 287 289 291 292 293 294 294 295 295 296 295 295 295 295 295 295 296 297 297 298 298 299 299 300 301 301 302 302 302 302 302 302 302 302 302 302 302 302 303 303 302 302 302 301 301 301 301 301 301 301 301 301 300 300 299 299 300 300 299 298 298 297 297 297 296 296 295 294 293 292 291 290 290 289
260 262 266 269 272 275 278 280 282 283 284 286 287 289 290 291 292 293 294 295 296 296 297 296 296 296 296 296 296 297 298 298 299 299 300 301 301 302 302 302 302 303 303 303 303 303 303 303 303 303 303 302 302 301 301 301 301 301 300 300 300 300 300 300 300 300 300 300 300 300 300 300 300 299 299 298 298 298 297 297 296 295 294 293 292 291 290 289
263 267 271 275 278 281 283 283 284 286 287 289 291 292 292 293 294 296 297 297 297 298 297 297 297 297 297 298 299 299 300 300 301 302 303 303 303 303 303 304 304 304 304 304 304 305 305 305 305 305 304 304 303 302 302 302 301 301 301 301 301 301 301 301 301 301 302 302 302 301 300 301 300 299 299 300 299 298 298 298 297 297 296 295 294 292 291 290
271 275 278 281 283 284 285 286 287 289 290 292 293 293 294 296 296 297 298 298 298 298 298 298 298 299 299 300 301 302 303 304 304 305 305 305 305 305 305 305 305 305 306 306 306 306 306 305 305 305 305 305 305 305 305 304 304 303 303 303 303 303 303 304 303 303 303 302 301 300 300 300 300 299 300 300 300 300 300 299 299 298 298 297 296 295 293 291
280 282 284 286 286 286 287 288 289 291 292 293 295 295 296 297 298 299 299 299 299 299 299 300 300 301 302 303 304 305 306 306 306 306 306 306 306 306 307 307 307 307 307 307 307 306 306 306 306 306 306 306 306 306 306 305 305 305 305 305 305 305 305 305 304 303 303 302 301 300 300 300 300 300 300 300 300 300 300 299 298 298 297 296 296 295 294 292
285 286 287 287 288 288 290 291 292 294 295 296 296 297 298 299 299 300 300 300 300 301 301 302 303 304 305 306 307 307 307 307 307 307 307 308 308 308 308 308 308 308 308 307 307 307 307 307 307 307 307 306 306 306 307 307 307 307 307 306 306 306 305 304 303 302 302 302 301 301 301 301 301 301 301 300 300 300 299 298 297 296 295 295 294 294 293 292
287 286 287 288 289 291 293 294 295 296 297 298 299 299 300 301 301 301 302 302 303 303 304 305 306 307 307 307 307 307 307 307 308 308 308 308 308 309 309 308 308 308 307 308 308 308 308 308 307 307 307 307 307 307 308 308 308 307 307 306 305 305 304 303 302 302 302 302 303 303 303 303 302 302 301 300 300 300 299 298 297 296 295 295 294 293 292 291
286 287 288 291 292 294 296 297 298 298 299 300 301 301 301 302 303 304 304 304 305 306 307 308 308 308 308 308 308 308 308 308 308 308 309 309 309 309 308 308 308 308 308 309 309 309 309 308 308 308 308 308 309 309 309 309 308 307 306 305 305 304 304 303 303 303 304 303 303 303 303 302 301 301 301 301 301 300 300 299 298 296 295 295 294 294 293 292
287 289 292 294 296 298 299 299 300 300 301 301 302 303 304 305 305 305 305 306 307 308 309 309 309 309 309 309 309 309 309 309 309 309 309 309 309 309 309 309 309 310 310 310 310 309 309 309 309 309 310 310 310 310 309 308 307 306 305 305 305 305 305 305 305 305 305 304 303 302 302 301 301 301 301 301 301 301 300 299 298 296 295 295 294 294 293 292
291 293 296 298 300 300 301 301 301 302 302 303 304 305 306 306 306 307 308 309 310 310 310 310 310 310 310 310 311 311 310 310 310 310 310 310 310 311 311 311 311 311 311 311 311 310 310 311 311 311 311 311 311 310 310 308 307 307 306 306 307 306 306 305 306 306 305 304 304 304 303 303 303 302 302 302 302 302 301 300 298 297 296 296 296 295 293 292